Time,TemperatureF,DewpointF,PressureIn,WindDirection,WindDirectionDegrees,WindSpeedMPH,WindSpeedGustMPH,Humidity,HourlyPrecipIn,Conditions,Clouds,dailyrainin,SoftwareType,DateUTC
2013-07-11 00:00:00,55.9,50.5,29.91,East,90,0.0,0.0,82,0.00,CLR,SKC,0.00,WeatherDisplay:10.37,2013-07-10 23:00:00,
2013-07-11 00:05:00,55.8,50.3,29.91,ESE,102,0.0,0.0,82,0.00,CLR,SKC,0.00,WeatherDisplay:10.37,2013-07-10 23:05:00,
2013-07-11 00:10:00,55.6,50.5,29.91,East,90,0.0,0.0,83,0.00,CLR,SKC,0.00,WeatherDisplay:10.37,2013-07-10 23:10:00,
2013-07-11 00:15:00,55.6,50.5,29.91,ESE,108,0.0,0.0,83,0.00,CLR,SKC,0.00,WeatherDisplay:10.37,2013-07-10 23:15:00,
2013-07-11 00:20:00,55.6,50.5,29.91,ESE,112,0.0,0.0,83,0.00,CLR,SKC,0.00,WeatherDisplay:10.37,2013-07-10 23:20:00,
2013-07-11 00:25:00,55.4,50.7,29.91,ESE,112,0.0,0.0,84,0.00,CLR,SKC,0.00,WeatherDisplay:10.37,2013-07-10 23:25:00,
2013-07-11 00:30:00,55.4,50.6,29.91,East,90,0.0,0.0,84,0.00,CLR,SKC,0.00,WeatherDisplay:10.37,2013-07-10 23:30:00,
2013-07-11 00:35:00,55.4,50.6,29.91,East,99,0.0,0.0,84,0.00,CLR,SKC,0.00,WeatherDisplay:10.37,2013-07-10 23:35:00,
2013-07-11 00:40:00,55.4,51.0,29.91,East,90,0.0,0.0,85,0.00,CLR,SKC,0.00,WeatherDisplay:10.37,2013-07-10 23:40:00,
2013-07-11 00:45:00,55.4,51.0,29.91,East,96,0.0,0.0,85,0.00,CLR,SKC,0.00,WeatherDisplay:10.37,2013-07-10 23:45:00,
2013-07-11 00:50:00,55.6,51.1,29.91,East,90,0.0,0.0,85,0.00,CLR,SKC,0.00,WeatherDisplay:10.37,2013-07-10 23:50:00,
2013-07-11 00:55:00,55.6,51.2,29.91,East,90,0.0,0.0,85,0.00,CLR,SKC,0.00,WeatherDisplay:10.37,2013-07-10 23:55:00,
2013-07-11 01:00:00,55.8,51.3,29.91,ESE,112,0.0,0.0,85,0.00,CLR,SKC,0.00,WeatherDisplay:10.37,2013-07-11 00:00:00,
2013-07-11 01:05:00,55.9,51.5,29.91,ESE,112,0.0,0.0,85,0.00,CLR,SKC,0.00,WeatherDisplay:10.37,2013-07-11 00:05:00,
2013-07-11 01:10:00,56.1,51.7,29.91,East,90,0.0,0.0,85,0.00,CLR,SKC,0.00,WeatherDisplay:10.37,2013-07-11 00:10:00,
2013-07-11 01:15:00,56.1,51.7,29.91,ESE,102,0.0,0.0,85,0.00,CLR,SKC,0.00,WeatherDisplay:10.37,2013-07-11 00:15:00,
2013-07-11 01:20:00,56.3,51.5,29.91,ESE,112,0.0,0.0,84,0.00,CLR,SKC,0.00,WeatherDisplay:10.37,2013-07-11 00:20:00,
2013-07-11 01:25:00,56.3,51.5,29.91,ESE,112,0.0,0.0,84,0.00,CLR,SKC,0.00,WeatherDisplay:10.37,2013-07-11 00:25:00,
2013-07-11 01:30:00,56.5,51.7,29.92,ESE,112,0.0,0.0,84,0.00,CLR,SKC,0.00,WeatherDisplay:10.37,2013-07-11 00:30:00,
2013-07-11 01:35:00,56.5,51.7,29.91,ESE,112,0.0,0.0,84,0.00,CLR,SKC,0.00,WeatherDisplay:10.37,2013-07-11 00:35:00,
2013-07-11 01:40:00,56.7,51.9,29.91,ESE,112,0.0,0.0,84,0.00,CLR,SKC,0.00,WeatherDisplay:10.37,2013-07-11 00:40:00,
2013-07-11 01:45:00,56.8,52.1,29.91,ESE,112,0.0,0.0,84,0.00,CLR,SKC,0.00,WeatherDisplay:10.37,2013-07-11 00:45:00,
2013-07-11 01:50:00,56.8,52.1,29.91,ESE,112,0.0,0.0,84,0.00,CLR,SKC,0.00,WeatherDisplay:10.37,2013-07-11 00:50:00,
2013-07-11 01:55:00,56.8,52.1,29.91,ESE,112,0.0,0.0,84,0.00,CLR,SKC,0.00,WeatherDisplay:10.37,2013-07-11 00:55:00,
2013-07-11 02:00:00,56.8,52.1,29.91,ESE,112,0.0,0.0,84,0.00,CLR,SKC,0.00,WeatherDisplay:10.37,2013-07-11 01:00:00,
2013-07-11 02:05:00,56.8,52.1,29.91,ESE,112,0.0,0.0,84,0.00,CLR,SKC,0.00,WeatherDisplay:10.37,2013-07-11 01:05:00,
2013-07-11 02:10:00,56.8,52.1,29.91,ESE,112,0.0,0.0,84,0.00,CLR,SKC,0.00,WeatherDisplay:10.37,2013-07-11 01:10:00,
2013-07-11 02:15:00,57.0,52.2,29.91,ESE,112,0.0,0.0,84,0.00,CLR,SKC,0.00,WeatherDisplay:10.37,2013-07-11 01:15:00,
2013-07-11 02:20:00,57.0,52.2,29.91,ESE,112,0.0,0.0,84,0.00,CLR,SKC,0.00,WeatherDisplay:10.37,2013-07-11 01:20:00,
2013-07-11 02:25:00,57.2,52.1,29.91,ESE,112,0.0,0.0,83,0.00,CLR,SKC,0.00,WeatherDisplay:10.37,2013-07-11 01:25:00,
2013-07-11 02:30:00,57.4,52.3,29.91,ESE,112,0.0,0.0,83,0.00,CLR,SKC,0.00,WeatherDisplay:10.37,2013-07-11 01:30:00,
2013-07-11 02:35:00,57.4,52.3,29.91,ESE,112,0.0,0.0,83,0.00,CLR,SKC,0.00,WeatherDisplay:10.37,2013-07-11 01:35:00,
2013-07-11 02:40:00,57.4,52.3,29.91,ESE,112,0.0,0.0,83,0.00,CLR,SKC,0.00,WeatherDisplay:10.37,2013-07-11 01:40:00,
2013-07-11 02:45:00,57.4,51.9,29.91,ESE,112,0.0,0.0,82,0.00,CLR,SKC,0.00,WeatherDisplay:10.37,2013-07-11 01:45:00,
2013-07-11 02:50:00,57.4,51.9,29.91,ESE,112,0.0,0.0,82,0.00,CLR,SKC,0.00,WeatherDisplay:10.37,2013-07-11 01:50:00,
2013-07-11 02:55:00,57.4,51.9,29.91,ESE,112,0.0,0.0,82,0.00,CLR,SKC,0.00,WeatherDisplay:10.37,2013-07-11 01:55:00,
2013-07-11 03:00:00,57.6,52.4,29.91,ESE,112,0.0,0.0,83,0.00,CLR,SKC,0.00,WeatherDisplay:10.37,2013-07-11 02:00:00,
2013-07-11 03:05:00,57.6,52.4,29.91,ESE,112,0.0,0.0,83,0.00,CLR,SKC,0.00,WeatherDisplay:10.37,2013-07-11 02:05:00,
2013-07-11 03:10:00,57.6,52.4,29.91,East,90,0.0,0.0,83,0.00,CLR,SKC,0.00,WeatherDisplay:10.37,2013-07-11 02:10:00,
2013-07-11 03:15:00,57.6,52.4,29.91,East,90,0.0,0.0,83,0.00,CLR,SKC,0.00,WeatherDisplay:10.37,2013-07-11 02:15:00,
2013-07-11 03:20:00,57.6,52.4,29.91,East,90,0.0,0.0,83,0.00,CLR,SKC,0.00,WeatherDisplay:10.37,2013-07-11 02:20:00,
2013-07-11 03:25:00,57.6,52.4,29.90,ESE,112,0.0,0.0,83,0.00,CLR,SKC,0.00,WeatherDisplay:10.37,2013-07-11 02:25:00,
2013-07-11 03:30:00,57.6,52.4,29.91,ESE,112,0.0,0.0,83,0.00,CLR,SKC,0.00,WeatherDisplay:10.37,2013-07-11 02:30:00,
2013-07-11 03:35:00,57.6,52.4,29.91,ESE,112,0.0,0.0,83,0.00,CLR,SKC,0.00,WeatherDisplay:10.37,2013-07-11 02:35:00,
2013-07-11 03:40:00,57.6,52.4,29.91,ESE,112,0.0,0.0,83,0.00,CLR,SKC,0.00,WeatherDisplay:10.37,2013-07-11 02:40:00,
2013-07-11 03:45:00,57.6,52.4,29.91,ESE,112,0.0,0.0,83,0.00,CLR,SKC,0.00,WeatherDisplay:10.37,2013-07-11 02:45:00,
2013-07-11 03:50:00,57.6,52.4,29.91,East,90,0.0,0.0,83,0.00,CLR,SKC,0.00,WeatherDisplay:10.37,2013-07-11 02:50:00,
2013-07-11 03:55:00,57.7,52.6,29.90,East,90,0.0,0.0,83,0.00,CLR,SKC,0.00,WeatherDisplay:10.37,2013-07-11 02:55:00,
2013-07-11 04:00:00,57.7,52.6,29.90,ESE,112,0.0,0.0,83,0.00,CLR,SKC,0.00,WeatherDisplay:10.37,2013-07-11 03:00:00,
2013-07-11 04:05:00,57.7,52.6,29.91,ESE,112,0.0,0.0,83,0.00,CLR,SKC,0.00,WeatherDisplay:10.37,2013-07-11 03:05:00,
2013-07-11 04:10:00,57.7,52.6,29.91,ESE,112,0.0,0.0,83,0.00,CLR,SKC,0.00,WeatherDisplay:10.37,2013-07-11 03:10:00,
2013-07-11 04:15:00,57.7,52.6,29.90,East,90,0.0,0.0,83,0.00,CLR,SKC,0.00,WeatherDisplay:10.37,2013-07-11 03:15:00,
2013-07-11 04:20:00,57.7,52.6,29.90,East,90,0.0,0.0,83,0.00,CLR,SKC,0.00,WeatherDisplay:10.37,2013-07-11 03:20:00,
2013-07-11 04:25:00,57.7,52.6,29.90,ESE,112,0.0,0.0,83,0.00,CLR,SKC,0.00,WeatherDisplay:10.37,2013-07-11 03:25:00,
2013-07-11 04:30:00,57.7,52.6,29.90,ESE,112,0.0,0.0,83,0.00,CLR,SKC,0.00,WeatherDisplay:10.37,2013-07-11 03:30:00,
2013-07-11 04:35:00,57.7,52.6,29.90,ESE,112,0.0,0.0,83,0.00,CLR,SKC,0.00,WeatherDisplay:10.37,2013-07-11 03:35:00,
2013-07-11 04:40:00,57.7,52.6,29.90,SE,135,0.0,0.0,83,0.00,CLR,SKC,0.00,WeatherDisplay:10.37,2013-07-11 03:40:00,
2013-07-11 04:45:00,57.7,52.6,29.90,SE,135,0.0,0.0,83,0.00,CLR,SKC,0.00,WeatherDisplay:10.37,2013-07-11 03:45:00,
2013-07-11 04:50:00,57.7,52.3,29.90,ESE,112,0.0,0.0,82,0.00,CLR,SKC,0.00,WeatherDisplay:10.37,2013-07-11 03:50:00,
2013-07-11 04:55:00,57.7,52.3,29.90,ESE,112,0.0,0.0,82,0.00,CLR,SKC,0.00,WeatherDisplay:10.37,2013-07-11 03:55:00,
2013-07-11 05:00:00,57.9,52.5,29.90,ESE,112,0.0,0.0,82,0.00,CLR,SKC,0.00,WeatherDisplay:10.37,2013-07-11 04:00:00,
2013-07-11 05:01:00,57.9,52.5,29.90,ESE,112,0.0,0.0,82,0.00,CLR,SKC,0.00,WeatherDisplay:10.37,2013-07-11 04:01:00,
2013-07-11 05:06:00,57.9,52.5,29.91,SE,135,0.0,0.0,82,0.00,CLR,SKC,0.00,WeatherDisplay:10.37,2013-07-11 04:06:00,
2013-07-11 05:11:00,57.9,52.5,29.91,ESE,112,0.0,0.0,82,0.00,CLR,SKC,0.00,WeatherDisplay:10.37,2013-07-11 04:11:00,
2013-07-11 05:16:00,57.9,52.5,29.90,East,90,0.0,0.0,82,0.00,CLR,SKC,0.00,WeatherDisplay:10.37,2013-07-11 04:16:00,
2013-07-11 05:21:00,57.9,52.5,29.90,ESE,112,0.0,0.0,82,0.00,CLR,SKC,0.00,WeatherDisplay:10.37,2013-07-11 04:21:00,
2013-07-11 05:26:00,57.9,52.5,29.90,ESE,112,0.0,0.0,82,0.00,CLR,SKC,0.00,WeatherDisplay:10.37,2013-07-11 04:26:00,
2013-07-11 05:31:00,57.9,52.5,29.90,ESE,112,0.0,0.0,82,0.00,CLR,SKC,0.00,WeatherDisplay:10.37,2013-07-11 04:31:00,
2013-07-11 05:37:00,57.9,52.1,29.90,SSW,202,0.0,0.0,81,0.00,CLR,SKC,0.00,WeatherDisplay:10.37,2013-07-11 04:37:00,
2013-07-11 05:42:00,57.9,52.1,29.90,South,180,0.0,0.0,81,0.00,CLR,SKC,0.00,WeatherDisplay:10.37,2013-07-11 04:42:00,
2013-07-11 05:47:00,57.9,52.1,29.89,South,180,0.0,0.0,81,0.00,CLR,SKC,0.00,WeatherDisplay:10.37,2013-07-11 04:47:00,
2013-07-11 05:52:00,57.9,52.1,29.89,ESE,112,0.0,0.0,81,0.00,CLR,SKC,0.00,WeatherDisplay:10.37,2013-07-11 04:52:00,
2013-07-11 05:57:00,57.9,52.1,29.89,ESE,112,0.0,0.0,81,0.00,CLR,SKC,0.00,WeatherDisplay:10.37,2013-07-11 04:57:00,
2013-07-11 06:02:00,57.9,52.1,29.90,SSE,158,0.0,0.0,81,0.00,CLR,SKC,0.00,WeatherDisplay:10.37,2013-07-11 05:02:00,
2013-07-11 06:07:00,57.9,52.1,29.90,SSE,158,0.0,0.0,81,0.00,CLR,SKC,0.00,WeatherDisplay:10.37,2013-07-11 05:07:00,
2013-07-11 06:12:00,57.9,52.1,29.90,SSE,158,0.0,0.0,81,0.00,CLR,SKC,0.00,WeatherDisplay:10.37,2013-07-11 05:12:00,
2013-07-11 06:17:00,58.1,52.3,29.90,SSE,158,0.0,0.0,81,0.00,CLR,SKC,0.00,WeatherDisplay:10.37,2013-07-11 05:17:00,
2013-07-11 06:22:00,58.1,52.3,29.90,SE,135,0.0,0.0,81,0.00,CLR,SKC,0.00,WeatherDisplay:10.37,2013-07-11 05:22:00,
2013-07-11 06:27:00,58.3,52.5,29.90,ESE,112,0.0,0.0,81,0.00,CLR,SKC,0.00,WeatherDisplay:10.37,2013-07-11 05:27:00,
2013-07-11 06:32:00,58.1,52.3,29.90,East,90,0.0,0.0,81,0.00,CLR,SKC,0.00,WeatherDisplay:10.37,2013-07-11 05:32:00,
2013-07-11 06:37:00,57.9,52.1,29.90,ESE,112,0.0,0.0,81,0.00,CLR,SKC,0.00,WeatherDisplay:10.37,2013-07-11 05:37:00,
2013-07-11 06:42:00,57.9,52.1,29.90,East,90,0.0,0.0,81,0.00,CLR,SKC,0.00,WeatherDisplay:10.37,2013-07-11 05:42:00,
2013-07-11 06:47:00,57.7,52.3,29.90,ESE,112,0.0,0.0,82,0.00,CLR,SKC,0.00,WeatherDisplay:10.37,2013-07-11 05:47:00,
2013-07-11 06:52:00,57.9,52.5,29.90,ENE,68,0.0,0.0,82,0.00,CLR,SKC,0.00,WeatherDisplay:10.37,2013-07-11 05:52:00,
2013-07-11 06:57:00,57.9,52.5,29.90,East,90,0.0,0.0,82,0.00,CLR,SKC,0.00,WeatherDisplay:10.37,2013-07-11 05:57:00,
2013-07-11 07:02:00,57.9,52.5,29.89,ESE,112,0.0,0.0,82,0.00,CLR,SKC,0.00,WeatherDisplay:10.37,2013-07-11 06:02:00,
2013-07-11 07:07:00,58.1,52.6,29.90,East,90,0.0,0.0,82,0.00,CLR,SKC,0.00,WeatherDisplay:10.37,2013-07-11 06:07:00,
2013-07-11 07:12:00,58.1,52.6,29.90,ESE,112,0.0,0.0,82,0.00,CLR,SKC,0.00,WeatherDisplay:10.37,2013-07-11 06:12:00,
2013-07-11 07:17:00,58.1,52.6,29.90,East,90,0.0,0.0,82,0.00,CLR,SKC,0.00,WeatherDisplay:10.37,2013-07-11 06:17:00,
2013-07-11 07:22:00,58.1,52.6,29.90,East,90,0.0,0.0,82,0.00,CLR,SKC,0.00,WeatherDisplay:10.37,2013-07-11 06:22:00,
2013-07-11 07:27:00,58.3,52.8,29.90,SE,135,0.0,0.0,82,0.00,CLR,SKC,0.00,WeatherDisplay:10.37,2013-07-11 06:27:00,
2013-07-11 07:32:00,58.3,52.8,29.90,ESE,112,0.0,0.0,82,0.00,CLR,SKC,0.00,WeatherDisplay:10.37,2013-07-11 06:32:00,
2013-07-11 07:37:00,58.5,53.0,29.90,ESE,112,0.0,0.0,82,0.00,CLR,SKC,0.00,WeatherDisplay:10.37,2013-07-11 06:37:00,
2013-07-11 07:42:00,58.6,53.2,29.90,East,90,0.0,0.0,82,0.00,CLR,SKC,0.00,WeatherDisplay:10.37,2013-07-11 06:42:00,
2013-07-11 07:47:00,58.8,53.3,29.90,ESE,112,0.0,0.0,82,0.00,CLR,SKC,0.00,WeatherDisplay:10.37,2013-07-11 06:47:00,
2013-07-11 07:52:00,58.8,53.0,29.90,ESE,112,0.0,0.0,81,0.00,CLR,SKC,0.00,WeatherDisplay:10.37,2013-07-11 06:52:00,
2013-07-11 07:57:00,58.8,53.0,29.90,East,90,0.0,0.0,81,0.00,CLR,SKC,0.00,WeatherDisplay:10.37,2013-07-11 06:57:00,
2013-07-11 08:02:00,58.8,53.0,29.89,ESE,112,0.0,0.0,81,0.00,CLR,SKC,0.00,WeatherDisplay:10.37,2013-07-11 07:02:00,
2013-07-11 08:07:00,59.0,53.2,29.89,ESE,112,0.0,0.0,81,0.00,CLR,SKC,0.00,WeatherDisplay:10.37,2013-07-11 07:07:00,
2013-07-11 08:12:00,59.4,53.2,29.89,ESE,112,0.0,0.0,80,0.00,CLR,SKC,0.00,WeatherDisplay:10.37,2013-07-11 07:12:00,
2013-07-11 08:17:00,59.4,53.2,29.89,ESE,112,0.0,0.0,80,0.00,CLR,SKC,0.00,WeatherDisplay:10.37,2013-07-11 07:17:00,
2013-07-11 08:22:00,59.5,53.4,29.90,ESE,112,0.0,0.0,80,0.00,CLR,SKC,0.00,WeatherDisplay:10.37,2013-07-11 07:22:00,
2013-07-11 08:27:00,59.5,53.4,29.90,ESE,112,0.0,0.0,80,0.00,CLR,SKC,0.00,WeatherDisplay:10.37,2013-07-11 07:27:00,
2013-07-11 08:32:00,59.7,53.5,29.90,ESE,112,0.0,0.0,80,0.00,CLR,SKC,0.00,WeatherDisplay:10.37,2013-07-11 07:32:00,
2013-07-11 08:37:00,59.5,53.4,29.90,ESE,112,0.0,0.0,80,0.00,CLR,SKC,0.00,WeatherDisplay:10.37,2013-07-11 07:37:00,
2013-07-11 08:42:00,59.7,53.5,29.89,East,90,0.0,0.0,80,0.00,CLR,SKC,0.00,WeatherDisplay:10.37,2013-07-11 07:42:00,
2013-07-11 08:47:00,60.1,53.9,29.89,ESE,112,0.0,0.0,80,0.00,CLR,SKC,0.00,WeatherDisplay:10.37,2013-07-11 07:47:00,
2013-07-11 08:52:00,60.4,53.9,29.90,East,90,0.0,0.0,79,0.00,CLR,SKC,0.00,WeatherDisplay:10.37,2013-07-11 07:52:00,
2013-07-11 08:57:00,60.4,53.9,29.90,ESE,112,0.0,0.0,79,0.00,CLR,SKC,0.00,WeatherDisplay:10.37,2013-07-11 07:57:00,
2013-07-11 09:02:00,60.4,53.9,29.90,ESE,112,0.0,0.0,79,0.00,CLR,SKC,0.00,WeatherDisplay:10.37,2013-07-11 08:02:00,
2013-07-11 09:07:00,60.6,54.1,29.91,ENE,68,0.0,0.0,79,0.00,CLR,SKC,0.00,WeatherDisplay:10.37,2013-07-11 08:07:00,
2013-07-11 09:12:00,60.6,54.1,29.90,East,90,0.0,0.0,79,0.00,CLR,SKC,0.00,WeatherDisplay:10.37,2013-07-11 08:12:00,
2013-07-11 09:17:00,61.2,54.6,29.90,East,90,0.0,0.0,79,0.00,CLR,SKC,0.00,WeatherDisplay:10.37,2013-07-11 08:17:00,
2013-07-11 09:22:00,61.5,54.9,29.90,ENE,68,0.0,0.0,79,0.00,CLR,SKC,0.00,WeatherDisplay:10.37,2013-07-11 08:22:00,
2013-07-11 09:27:00,61.9,54.9,29.89,ENE,68,0.0,0.0,78,0.00,CLR,SKC,0.00,WeatherDisplay:10.37,2013-07-11 08:27:00,
2013-07-11 09:32:00,62.2,54.9,29.90,ESE,112,0.0,0.0,77,0.00,CLR,SKC,0.00,WeatherDisplay:10.37,2013-07-11 08:32:00,
2013-07-11 09:37:00,62.4,55.1,29.89,ESE,112,0.0,0.0,77,0.00,CLR,SKC,0.00,WeatherDisplay:10.37,2013-07-11 08:37:00,
2013-07-11 09:42:00,62.8,55.5,29.89,East,90,0.0,0.0,77,0.00,CLR,SKC,0.00,WeatherDisplay:10.37,2013-07-11 08:42:00,
2013-07-11 09:47:00,63.3,56.0,29.89,ENE,68,0.0,0.0,77,0.00,CLR,SKC,0.00,WeatherDisplay:10.37,2013-07-11 08:47:00,
2013-07-11 09:52:00,63.5,55.8,29.89,ENE,68,0.0,0.0,76,0.00,CLR,SKC,0.00,WeatherDisplay:10.37,2013-07-11 08:52:00,
2013-07-11 09:57:00,64.0,56.0,29.89,NE,45,0.0,0.0,75,0.00,CLR,SKC,0.00,WeatherDisplay:10.37,2013-07-11 08:57:00,
2013-07-11 10:02:00,64.4,55.9,29.89,ESE,112,0.0,0.0,74,0.00,CLR,SKC,0.00,WeatherDisplay:10.37,2013-07-11 09:02:00,
2013-07-11 10:07:00,64.6,56.1,29.89,ESE,112,0.0,0.0,74,0.00,CLR,SKC,0.00,WeatherDisplay:10.37,2013-07-11 09:07:00,
2013-07-11 10:12:00,64.9,56.5,29.89,ESE,112,0.0,0.0,74,0.00,CLR,SKC,0.00,WeatherDisplay:10.37,2013-07-11 09:12:00,
2013-07-11 10:17:00,65.3,56.8,29.88,ESE,112,0.0,0.0,74,0.00,CLR,SKC,0.00,WeatherDisplay:10.37,2013-07-11 09:17:00,
2013-07-11 10:22:00,65.5,56.6,29.88,SSE,158,0.0,0.0,73,0.00,CLR,SKC,0.00,WeatherDisplay:10.37,2013-07-11 09:22:00,
2013-07-11 10:27:00,66.0,57.1,29.88,ESE,112,0.0,0.0,73,0.00,CLR,SKC,0.00,WeatherDisplay:10.37,2013-07-11 09:27:00,
2013-07-11 10:32:00,66.0,56.7,29.88,ESE,112,0.0,0.0,72,0.00,CLR,SKC,0.00,WeatherDisplay:10.37,2013-07-11 09:32:00,
2013-07-11 10:37:00,66.4,57.1,29.88,ESE,112,0.0,0.0,72,0.00,CLR,SKC,0.00,WeatherDisplay:10.37,2013-07-11 09:37:00,
2013-07-11 10:42:00,66.7,57.4,29.88,East,90,0.0,0.0,72,0.00,CLR,SKC,0.00,WeatherDisplay:10.37,2013-07-11 09:42:00,
2013-07-11 10:47:00,67.3,57.6,29.88,ESE,112,0.0,0.0,71,0.00,CLR,SKC,0.00,WeatherDisplay:10.37,2013-07-11 09:47:00,
2013-07-11 10:52:00,67.8,57.7,29.87,ESE,112,0.0,0.0,70,0.00,CLR,SKC,0.00,WeatherDisplay:10.37,2013-07-11 09:52:00,
2013-07-11 10:57:00,68.2,58.0,29.88,SSE,158,0.0,0.0,70,0.00,CLR,SKC,0.00,WeatherDisplay:10.37,2013-07-11 09:57:00,
2013-07-11 11:02:00,68.7,58.1,29.88,NE,45,0.0,0.0,69,0.00,CLR,SKC,0.00,WeatherDisplay:10.37,2013-07-11 10:02:00,
2013-07-11 11:07:00,69.1,58.5,29.88,East,90,0.0,0.0,69,0.00,CLR,SKC,0.00,WeatherDisplay:10.37,2013-07-11 10:07:00,
2013-07-11 11:12:00,69.4,58.4,29.88,ESE,112,0.0,0.0,68,0.00,CLR,SKC,0.00,WeatherDisplay:10.37,2013-07-11 10:12:00,
2013-07-11 11:17:00,69.8,58.8,29.87,ENE,68,0.0,0.0,68,0.00,CLR,SKC,0.00,WeatherDisplay:10.37,2013-07-11 10:17:00,
2013-07-11 11:22:00,70.5,59.0,29.87,SE,135,0.0,0.0,67,0.00,CLR,SKC,0.00,WeatherDisplay:10.37,2013-07-11 10:22:00,
2013-07-11 11:27:00,70.5,59.0,29.87,East,90,0.0,0.0,67,0.00,CLR,SKC,0.00,WeatherDisplay:10.37,2013-07-11 10:27:00,
2013-07-11 11:32:00,70.9,59.4,29.87,ESE,112,0.0,0.0,67,0.00,CLR,SKC,0.00,WeatherDisplay:10.37,2013-07-11 10:32:00,
2013-07-11 11:37:00,71.2,59.7,29.87,ESE,112,0.0,0.0,67,0.00,CLR,SKC,0.00,WeatherDisplay:10.37,2013-07-11 10:37:00,
2013-07-11 11:42:00,71.4,59.5,29.87,ENE,68,0.0,0.0,66,0.00,CLR,SKC,0.00,WeatherDisplay:10.37,2013-07-11 10:42:00,
2013-07-11 11:47:00,72.3,60.7,29.86,ENE,68,0.0,0.0,67,0.00,CLR,SKC,0.00,WeatherDisplay:10.37,2013-07-11 10:47:00,
2013-07-11 11:53:00,73.2,60.3,29.86,ESE,112,0.0,0.0,64,0.00,CLR,SKC,0.00,WeatherDisplay:10.37,2013-07-11 10:53:00,
2013-07-11 11:58:00,74.5,61.9,29.86,ESE,112,0.0,0.0,65,0.00,CLR,SKC,0.00,WeatherDisplay:10.37,2013-07-11 10:58:00,
2013-07-11 12:03:00,76.8,62.8,29.86,SSW,202,0.0,0.0,62,0.00,CLR,SKC,0.00,WeatherDisplay:10.37,2013-07-11 11:03:00,
2013-07-11 12:08:00,78.4,63.9,29.86,SSW,202,0.0,0.0,61,0.00,CLR,SKC,0.00,WeatherDisplay:10.37,2013-07-11 11:08:00,
2013-07-11 12:13:00,79.7,64.1,29.86,SW,225,0.0,0.0,59,0.00,CLR,SKC,0.00,WeatherDisplay:10.37,2013-07-11 11:13:00,
2013-07-11 12:18:00,80.2,63.6,29.85,SSW,202,0.0,0.0,57,0.00,CLR,SKC,0.00,WeatherDisplay:10.37,2013-07-11 11:18:00,
2013-07-11 12:23:00,82.2,63.9,29.86,ESE,112,0.0,0.0,54,0.00,CLR,SKC,0.00,WeatherDisplay:10.37,2013-07-11 11:23:00,
2013-07-11 12:28:00,83.5,64.5,29.85,SSW,202,0.0,0.0,53,0.00,CLR,SKC,0.00,WeatherDisplay:10.37,2013-07-11 11:28:00,
2013-07-11 12:33:00,83.5,64.5,29.85,SSW,202,0.0,0.0,53,0.00,CLR,SKC,0.00,WeatherDisplay:10.37,2013-07-11 11:33:00,
2013-07-11 12:38:00,84.0,63.9,29.85,ESE,112,0.0,0.0,51,0.00,CLR,SKC,0.00,WeatherDisplay:10.37,2013-07-11 11:38:00,
2013-07-11 12:43:00,84.0,63.4,29.85,NNE,22,0.0,0.0,50,0.00,CLR,SKC,0.00,WeatherDisplay:10.37,2013-07-11 11:43:00,
2013-07-11 12:48:00,83.8,63.8,29.85,NW,315,0.0,0.0,51,0.00,CLR,SKC,0.00,WeatherDisplay:10.37,2013-07-11 11:48:00,
2013-07-11 12:53:00,83.5,64.0,29.85,SW,225,0.0,0.0,52,0.00,CLR,SKC,0.00,WeatherDisplay:10.37,2013-07-11 11:53:00,
2013-07-11 12:58:00,82.2,62.8,29.84,West,270,0.0,0.0,52,0.00,CLR,SKC,0.00,WeatherDisplay:10.37,2013-07-11 11:58:00,
2013-07-11 13:03:00,81.1,62.4,29.85,West,270,0.0,0.0,53,0.00,CLR,SKC,0.00,WeatherDisplay:10.37,2013-07-11 12:03:00,
2013-07-11 13:08:00,80.2,62.1,29.85,North,0,0.0,0.0,54,0.00,CLR,SKC,0.00,WeatherDisplay:10.37,2013-07-11 12:08:00,
2013-07-11 13:13:00,79.3,61.8,29.84,WSW,248,0.0,0.0,55,0.00,CLR,SKC,0.00,WeatherDisplay:10.37,2013-07-11 12:13:00,
2013-07-11 13:18:00,78.6,62.1,29.84,SW,225,0.0,0.0,57,0.00,CLR,SKC,0.00,WeatherDisplay:10.37,2013-07-11 12:18:00,
2013-07-11 13:23:00,78.6,62.1,29.84,WNW,292,0.0,0.0,57,0.00,CLR,SKC,0.00,WeatherDisplay:10.37,2013-07-11 12:23:00,
2013-07-11 13:28:00,78.3,62.3,29.84,WNW,292,0.0,0.0,58,0.00,CLR,SKC,0.00,WeatherDisplay:10.37,2013-07-11 12:28:00,
2013-07-11 13:33:00,78.4,62.4,29.83,NNW,338,0.0,0.0,58,0.00,CLR,SKC,0.00,WeatherDisplay:10.37,2013-07-11 12:33:00,
2013-07-11 13:38:00,78.4,62.9,29.83,SW,225,0.0,0.0,59,0.00,CLR,SKC,0.00,WeatherDisplay:10.37,2013-07-11 12:38:00,
2013-07-11 13:43:00,78.3,62.8,29.83,West,270,0.0,0.0,59,0.00,CLR,SKC,0.00,WeatherDisplay:10.37,2013-07-11 12:43:00,
2013-07-11 13:48:00,78.4,62.9,29.83,WNW,292,0.0,0.0,59,0.00,CLR,SKC,0.00,WeatherDisplay:10.37,2013-07-11 12:48:00,
2013-07-11 13:53:00,78.4,63.4,29.83,NNW,338,0.0,0.0,60,0.00,CLR,SKC,0.00,WeatherDisplay:10.37,2013-07-11 12:53:00,
2013-07-11 13:58:00,78.1,63.1,29.83,North,0,0.0,0.0,60,0.00,CLR,SKC,0.00,WeatherDisplay:10.37,2013-07-11 12:58:00,
2013-07-11 14:04:00,78.4,63.4,29.83,SW,225,0.0,0.0,60,0.00,CLR,SKC,0.00,WeatherDisplay:10.37,2013-07-11 13:04:00,
2013-07-11 14:09:00,78.6,63.6,29.83,WNW,292,0.0,0.0,60,0.00,CLR,SKC,0.00,WeatherDisplay:10.37,2013-07-11 13:09:00,
2013-07-11 14:15:00,78.6,63.1,29.83,NW,311,0.0,0.0,59,0.00,CLR,SKC,0.00,WeatherDisplay:10.37,2013-07-11 13:15:00,
2013-07-11 14:20:00,78.6,63.1,29.82,WSW,258,0.0,0.0,59,0.00,CLR,SKC,0.00,WeatherDisplay:10.37,2013-07-11 13:20:00,
2013-07-11 14:25:00,79.3,63.8,29.83,SW,218,0.0,0.0,59,0.00,CLR,SKC,0.00,WeatherDisplay:10.37,2013-07-11 13:25:00,
2013-07-11 14:30:00,79.7,64.1,29.83,ENE,68,0.0,0.0,59,0.00,CLR,SKC,0.00,WeatherDisplay:10.37,2013-07-11 13:30:00,
2013-07-11 14:36:00,79.3,62.8,29.82,WSW,248,0.0,0.0,57,0.00,CLR,SKC,0.00,WeatherDisplay:10.37,2013-07-11 13:36:00,
2013-07-11 14:41:00,79.3,63.3,29.82,NNE,22,0.0,0.0,58,0.00,CLR,SKC,0.00,WeatherDisplay:10.37,2013-07-11 13:41:00,
2013-07-11 14:47:00,79.3,62.8,29.82,SW,225,0.0,0.0,57,0.00,CLR,SKC,0.00,WeatherDisplay:10.37,2013-07-11 13:47:00,
2013-07-11 14:52:00,79.5,63.4,29.81,North,0,0.0,0.0,58,0.00,CLR,SKC,0.00,WeatherDisplay:10.37,2013-07-11 13:52:00,
2013-07-11 14:57:00,79.7,63.6,29.82,NNE,22,0.0,0.0,58,0.00,CLR,SKC,0.00,WeatherDisplay:10.37,2013-07-11 13:57:00,
2013-07-11 15:02:00,80.1,63.5,29.82,North,0,0.0,0.0,57,0.00,CLR,SKC,0.00,WeatherDisplay:10.37,2013-07-11 14:02:00,
2013-07-11 15:07:00,80.2,63.1,29.81,South,180,0.0,0.0,56,0.00,CLR,SKC,0.00,WeatherDisplay:10.37,2013-07-11 14:07:00,
2013-07-11 15:12:00,80.4,63.8,29.81,NNW,338,0.0,0.0,57,0.00,CLR,SKC,0.00,WeatherDisplay:10.37,2013-07-11 14:12:00,
2013-07-11 15:17:00,80.8,63.1,29.81,WNW,292,0.0,0.0,55,0.00,CLR,SKC,0.00,WeatherDisplay:10.37,2013-07-11 14:17:00,
2013-07-11 15:22:00,80.8,63.1,29.81,ENE,68,0.0,0.0,55,0.00,CLR,SKC,0.00,WeatherDisplay:10.37,2013-07-11 14:22:00,
2013-07-11 15:27:00,80.8,63.1,29.81,WSW,248,0.0,0.0,55,0.00,CLR,SKC,0.00,WeatherDisplay:10.37,2013-07-11 14:27:00,
2013-07-11 15:32:00,80.8,63.6,29.80,West,270,0.0,0.0,56,0.00,CLR,SKC,0.00,WeatherDisplay:10.37,2013-07-11 14:32:00,
2013-07-11 15:38:00,81.3,64.1,29.81,WSW,248,0.0,0.0,56,0.00,CLR,SKC,0.00,WeatherDisplay:10.37,2013-07-11 14:38:00,
2013-07-11 15:43:00,81.5,64.3,29.80,SSW,202,0.0,0.0,56,0.00,CLR,SKC,0.00,WeatherDisplay:10.37,2013-07-11 14:43:00,
2013-07-11 15:48:00,81.7,63.9,29.81,WSW,248,0.0,0.0,55,0.00,CLR,SKC,0.00,WeatherDisplay:10.37,2013-07-11 14:48:00,
2013-07-11 15:54:00,81.9,63.6,29.80,NNE,22,0.0,0.0,54,0.00,CLR,SKC,0.00,WeatherDisplay:10.37,2013-07-11 14:54:00,
2013-07-11 15:59:00,81.5,63.3,29.80,WNW,292,0.0,0.0,54,0.00,CLR,SKC,0.00,WeatherDisplay:10.37,2013-07-11 14:59:00,
2013-07-11 16:05:00,81.3,63.1,29.80,ENE,68,0.0,0.0,54,0.00,CLR,SKC,0.00,WeatherDisplay:10.37,2013-07-11 15:05:00,
2013-07-11 16:10:00,81.3,63.1,29.79,North,0,0.0,0.0,54,0.00,CLR,SKC,0.00,WeatherDisplay:10.37,2013-07-11 15:10:00,
2013-07-11 16:15:00,81.5,63.8,29.80,West,274,0.0,0.0,55,0.00,CLR,SKC,0.00,WeatherDisplay:10.37,2013-07-11 15:15:00,
2013-07-11 16:20:00,81.9,63.6,29.79,WSW,258,0.0,0.0,54,0.00,CLR,SKC,0.00,WeatherDisplay:10.37,2013-07-11 15:20:00,
2013-07-11 16:25:00,82.0,63.8,29.80,West,270,0.0,0.0,54,0.00,CLR,SKC,0.00,WeatherDisplay:10.37,2013-07-11 15:25:00,
2013-07-11 16:30:00,82.0,63.8,29.79,WNW,287,0.0,0.0,54,0.00,CLR,SKC,0.00,WeatherDisplay:10.37,2013-07-11 15:30:00,
2013-07-11 16:35:00,82.0,63.8,29.79,NW,311,0.0,0.0,54,0.00,CLR,SKC,0.00,WeatherDisplay:10.37,2013-07-11 15:35:00,
2013-07-11 16:40:00,81.7,63.9,29.79,ESE,112,0.0,0.0,55,0.00,CLR,SKC,0.00,WeatherDisplay:10.37,2013-07-11 15:40:00,
2013-07-11 16:45:00,81.7,63.9,29.79,NE,45,0.0,0.0,55,0.00,CLR,SKC,0.00,WeatherDisplay:10.37,2013-07-11 15:45:00,
2013-07-11 16:50:00,81.5,63.8,29.78,ENE,68,0.0,0.0,55,0.00,CLR,SKC,0.00,WeatherDisplay:10.37,2013-07-11 15:50:00,
2013-07-11 16:55:00,81.0,63.8,29.79,ESE,112,0.0,0.0,56,0.00,CLR,SKC,0.00,WeatherDisplay:10.37,2013-07-11 15:55:00,
2013-07-11 17:01:00,80.2,63.6,29.79,East,90,0.0,0.0,57,0.00,CLR,SKC,0.00,WeatherDisplay:10.37,2013-07-11 16:01:00,
2013-07-11 17:06:00,80.1,63.5,29.78,ESE,112,0.0,0.0,57,0.00,CLR,SKC,0.00,WeatherDisplay:10.37,2013-07-11 16:06:00,
2013-07-11 17:12:00,80.4,63.3,29.78,ESE,112,0.0,0.0,56,0.00,CLR,SKC,0.00,WeatherDisplay:10.37,2013-07-11 16:12:00,
2013-07-11 17:17:00,80.4,63.3,29.78,ESE,112,0.0,0.0,56,0.00,CLR,SKC,0.00,WeatherDisplay:10.37,2013-07-11 16:17:00,
2013-07-11 17:22:00,79.7,63.1,29.78,ESE,112,0.0,0.0,57,0.00,CLR,SKC,0.00,WeatherDisplay:10.37,2013-07-11 16:22:00,
2013-07-11 17:27:00,79.2,62.6,29.78,ENE,68,0.0,0.0,57,0.00,CLR,SKC,0.00,WeatherDisplay:10.37,2013-07-11 16:27:00,
2013-07-11 17:32:00,79.3,63.3,29.78,East,90,0.0,0.0,58,0.00,CLR,SKC,0.00,WeatherDisplay:10.37,2013-07-11 16:32:00,
2013-07-11 17:37:00,79.5,63.4,29.78,ESE,112,0.0,0.0,58,0.00,CLR,SKC,0.00,WeatherDisplay:10.37,2013-07-11 16:37:00,
2013-07-11 17:43:00,79.5,62.9,29.78,NNE,22,0.0,0.0,57,0.00,CLR,SKC,0.00,WeatherDisplay:10.37,2013-07-11 16:43:00,
2013-07-11 17:48:00,79.9,63.8,29.78,North,0,0.0,0.0,58,0.00,CLR,SKC,0.00,WeatherDisplay:10.37,2013-07-11 16:48:00,
2013-07-11 17:53:00,80.4,63.8,29.78,ESE,112,0.0,0.0,57,0.00,CLR,SKC,0.00,WeatherDisplay:10.37,2013-07-11 16:53:00,
2013-07-11 17:58:00,80.2,63.1,29.78,ENE,68,0.0,0.0,56,0.00,CLR,SKC,0.00,WeatherDisplay:10.37,2013-07-11 16:58:00,
2013-07-11 18:03:00,79.5,62.4,29.77,East,90,0.0,0.0,56,0.00,CLR,SKC,0.00,WeatherDisplay:10.37,2013-07-11 17:03:00,
2013-07-11 18:09:00,77.9,61.9,29.78,East,90,0.0,0.0,58,0.00,CLR,SKC,0.00,WeatherDisplay:10.37,2013-07-11 17:09:00,
2013-07-11 18:14:00,77.5,61.6,29.78,East,90,0.0,0.0,58,0.00,CLR,SKC,0.00,WeatherDisplay:10.37,2013-07-11 17:14:00,
2013-07-11 18:19:00,77.2,61.7,29.78,ENE,68,0.0,0.0,59,0.00,CLR,SKC,0.00,WeatherDisplay:10.37,2013-07-11 17:19:00,
2013-07-11 18:24:00,76.8,61.4,29.78,East,90,0.0,0.0,59,0.00,CLR,SKC,0.00,WeatherDisplay:10.37,2013-07-11 17:24:00,
2013-07-11 18:29:00,76.3,60.9,29.77,ENE,68,0.0,0.0,59,0.00,CLR,SKC,0.00,WeatherDisplay:10.37,2013-07-11 17:29:00,
2013-07-11 18:34:00,76.3,61.4,29.77,ENE,68,0.0,0.0,60,0.00,CLR,SKC,0.00,WeatherDisplay:10.37,2013-07-11 17:34:00,
2013-07-11 18:39:00,76.1,61.2,29.77,ENE,68,0.0,0.0,60,0.00,CLR,SKC,0.00,WeatherDisplay:10.37,2013-07-11 17:39:00,
2013-07-11 18:45:00,75.7,61.3,29.77,East,80,0.0,0.0,61,0.00,CLR,SKC,0.00,WeatherDisplay:10.37,2013-07-11 17:45:00,
2013-07-11 18:50:00,74.8,60.4,29.77,East,83,0.0,0.0,61,0.00,CLR,SKC,0.00,WeatherDisplay:10.37,2013-07-11 17:50:00,
2013-07-11 18:55:00,73.8,60.4,29.77,East,99,0.0,0.0,63,0.00,CLR,SKC,0.00,WeatherDisplay:10.37,2013-07-11 17:55:00,
2013-07-11 19:00:00,73.5,60.1,29.77,ESE,104,0.0,0.0,63,0.00,CLR,SKC,0.00,WeatherDisplay:10.37,2013-07-11 18:00:00,
2013-07-11 19:05:00,73.0,60.1,29.77,ESE,104,0.0,0.0,64,0.00,CLR,SKC,0.00,WeatherDisplay:10.37,2013-07-11 18:05:00,
2013-07-11 19:10:00,73.0,60.1,29.78,ESE,105,0.0,0.0,64,0.00,CLR,SKC,0.00,WeatherDisplay:10.37,2013-07-11 18:10:00,
2013-07-11 19:15:00,72.3,59.5,29.78,East,93,0.0,0.0,64,0.00,CLR,SKC,0.00,WeatherDisplay:10.37,2013-07-11 18:15:00,
2013-07-11 19:20:00,72.0,59.2,29.77,East,85,0.0,0.0,64,0.00,CLR,SKC,0.00,WeatherDisplay:10.37,2013-07-11 18:20:00,
2013-07-11 19:25:00,71.8,59.4,29.77,ESE,112,0.0,0.0,65,0.00,CLR,SKC,0.00,WeatherDisplay:10.37,2013-07-11 18:25:00,
2013-07-11 19:30:00,71.7,59.3,29.77,ESE,104,0.0,0.0,65,0.00,CLR,SKC,0.00,WeatherDisplay:10.37,2013-07-11 18:30:00,
2013-07-11 19:35:00,71.4,59.5,29.78,ESE,112,0.0,0.0,66,0.00,CLR,SKC,0.00,WeatherDisplay:10.37,2013-07-11 18:35:00,
2013-07-11 19:40:00,71.2,59.3,29.78,East,93,0.0,0.0,66,0.00,CLR,SKC,0.00,WeatherDisplay:10.37,2013-07-11 18:40:00,
2013-07-11 19:45:00,70.9,59.4,29.78,East,90,0.0,0.0,67,0.00,CLR,SKC,0.00,WeatherDisplay:10.37,2013-07-11 18:45:00,
2013-07-11 19:50:00,70.5,59.0,29.78,East,98,0.0,0.0,67,0.00,CLR,SKC,0.00,WeatherDisplay:10.37,2013-07-11 18:50:00,
2013-07-11 19:55:00,70.3,59.3,29.78,ESE,112,0.0,0.0,68,0.00,CLR,SKC,0.00,WeatherDisplay:10.37,2013-07-11 18:55:00,
2013-07-11 20:00:00,70.2,59.1,29.78,ESE,112,0.0,0.0,68,0.00,CLR,SKC,0.00,WeatherDisplay:10.37,2013-07-11 19:00:00,
2013-07-11 20:05:00,70.0,59.3,29.78,East,90,0.0,0.0,69,0.00,CLR,SKC,0.00,WeatherDisplay:10.37,2013-07-11 19:05:00,
2013-07-11 20:10:00,70.0,59.3,29.78,East,90,0.0,0.0,69,0.00,CLR,SKC,0.00,WeatherDisplay:10.37,2013-07-11 19:10:00,
2013-07-11 20:15:00,69.6,59.0,29.78,ESE,112,0.0,0.0,69,0.00,CLR,SKC,0.00,WeatherDisplay:10.37,2013-07-11 19:15:00,
2013-07-11 20:20:00,69.6,59.0,29.78,ESE,112,0.0,0.0,69,0.00,CLR,SKC,0.00,WeatherDisplay:10.37,2013-07-11 19:20:00,
2013-07-11 20:26:00,69.3,59.1,29.78,ESE,112,0.0,0.0,70,0.00,CLR,SKC,0.00,WeatherDisplay:10.37,2013-07-11 19:26:00,
2013-07-11 20:31:00,69.1,58.9,29.78,East,90,0.0,0.0,70,0.00,CLR,SKC,0.00,WeatherDisplay:10.37,2013-07-11 19:31:00,
2013-07-11 20:37:00,68.9,58.7,29.78,ENE,68,0.0,0.0,70,0.00,CLR,SKC,0.00,WeatherDisplay:10.37,2013-07-11 19:37:00,
2013-07-11 20:42:00,68.9,59.1,29.78,ESE,112,0.0,0.0,71,0.00,CLR,SKC,0.00,WeatherDisplay:10.37,2013-07-11 19:42:00,
2013-07-11 20:48:00,68.7,58.9,29.78,ESE,112,0.0,0.0,71,0.00,CLR,SKC,0.00,WeatherDisplay:10.37,2013-07-11 19:48:00,
2013-07-11 20:54:00,68.5,58.8,29.78,ESE,112,0.0,0.0,71,0.00,CLR,SKC,0.00,WeatherDisplay:10.37,2013-07-11 19:54:00,
2013-07-11 20:59:00,68.2,58.8,29.78,East,90,0.0,0.0,72,0.00,CLR,SKC,0.00,WeatherDisplay:10.37,2013-07-11 19:59:00,
2013-07-11 21:05:00,68.2,58.8,29.78,ESE,107,0.0,0.0,72,0.00,CLR,SKC,0.00,WeatherDisplay:10.37,2013-07-11 20:05:00,
2013-07-11 21:10:00,68.0,58.6,29.78,ESE,110,0.0,0.0,72,0.00,CLR,SKC,0.00,WeatherDisplay:10.37,2013-07-11 20:10:00,
2013-07-11 21:15:00,67.8,58.5,29.78,ESE,110,0.0,0.0,72,0.00,CLR,SKC,0.00,WeatherDisplay:10.37,2013-07-11 20:15:00,
2013-07-11 21:20:00,67.6,58.7,29.79,ESE,103,0.0,0.0,73,0.00,CLR,SKC,0.00,WeatherDisplay:10.37,2013-07-11 20:20:00,
2013-07-11 21:25:00,67.3,58.3,29.78,East,100,0.0,0.0,73,0.00,CLR,SKC,0.00,WeatherDisplay:10.37,2013-07-11 20:25:00,
2013-07-11 21:30:00,67.1,58.5,29.78,ESE,112,0.0,0.0,74,0.00,CLR,SKC,0.00,WeatherDisplay:10.37,2013-07-11 20:30:00,
2013-07-11 21:35:00,66.9,58.4,29.78,ESE,108,0.0,0.0,74,0.00,CLR,SKC,0.00,WeatherDisplay:10.37,2013-07-11 20:35:00,
2013-07-11 21:40:00,66.7,58.2,29.78,East,90,0.0,0.0,74,0.00,CLR,SKC,0.00,WeatherDisplay:10.37,2013-07-11 20:40:00,
2013-07-11 21:45:00,66.4,58.2,29.79,East,100,0.0,0.0,75,0.00,CLR,SKC,0.00,WeatherDisplay:10.37,2013-07-11 20:45:00,
2013-07-11 21:50:00,66.0,57.9,29.79,ESE,112,0.0,0.0,75,0.00,CLR,SKC,0.00,WeatherDisplay:10.37,2013-07-11 20:50:00,
2013-07-11 21:55:00,66.0,57.9,29.78,ESE,108,0.0,0.0,75,0.00,CLR,SKC,0.00,WeatherDisplay:10.37,2013-07-11 20:55:00,
2013-07-11 22:00:00,65.5,57.7,29.79,ESE,112,0.0,0.0,76,0.00,CLR,SKC,0.00,WeatherDisplay:10.37,2013-07-11 21:00:00,
2013-07-11 22:05:00,65.3,57.5,29.79,East,90,0.0,0.0,76,0.00,CLR,SKC,0.00,WeatherDisplay:10.37,2013-07-11 21:05:00,
2013-07-11 22:10:00,65.1,57.4,29.79,East,99,0.0,0.0,76,0.00,CLR,SKC,0.00,WeatherDisplay:10.37,2013-07-11 21:10:00,
2013-07-11 22:15:00,64.9,57.2,29.78,East,99,0.0,0.0,76,0.00,CLR,SKC,0.00,WeatherDisplay:10.37,2013-07-11 21:15:00,
2013-07-11 22:20:00,64.6,57.2,29.78,East,94,0.0,0.0,77,0.00,CLR,SKC,0.00,WeatherDisplay:10.37,2013-07-11 21:20:00,
2013-07-11 22:25:00,64.6,57.2,29.79,ESE,112,0.0,0.0,77,0.00,CLR,SKC,0.00,WeatherDisplay:10.37,2013-07-11 21:25:00,
2013-07-11 22:30:00,64.3,56.9,29.79,East,97,0.0,0.0,77,0.00,CLR,SKC,0.00,WeatherDisplay:10.37,2013-07-11 21:30:00,
2013-07-11 22:35:00,64.2,57.2,29.79,East,93,0.0,0.0,78,0.00,CLR,SKC,0.00,WeatherDisplay:10.37,2013-07-11 21:35:00,
2013-07-11 22:40:00,64.0,57.0,29.79,East,95,0.0,0.0,78,0.00,CLR,SKC,0.00,WeatherDisplay:10.37,2013-07-11 21:40:00,
2013-07-11 22:45:00,64.0,57.0,29.80,East,80,0.0,0.0,78,0.00,CLR,SKC,0.00,WeatherDisplay:10.37,2013-07-11 21:45:00,
2013-07-11 22:50:00,63.5,56.5,29.79,ENE,68,0.0,0.0,78,0.00,CLR,SKC,0.00,WeatherDisplay:10.37,2013-07-11 21:50:00,
2013-07-11 22:55:00,63.3,56.7,29.79,ESE,112,0.0,0.0,79,0.00,CLR,SKC,0.00,WeatherDisplay:10.37,2013-07-11 21:55:00,
2013-07-11 23:00:00,63.0,56.3,29.79,ESE,112,0.0,0.0,79,0.00,CLR,SKC,0.00,WeatherDisplay:10.37,2013-07-11 22:00:00,
2013-07-11 23:05:00,62.8,56.5,29.80,ESE,112,0.0,0.0,80,0.00,CLR,SKC,0.00,WeatherDisplay:10.37,2013-07-11 22:05:00,
2013-07-11 23:11:00,62.4,56.2,29.79,East,90,0.0,0.0,80,0.00,CLR,SKC,0.00,WeatherDisplay:10.37,2013-07-11 22:11:00,
2013-07-11 23:17:00,62.2,56.0,29.80,ESE,112,0.0,0.0,80,0.00,CLR,SKC,0.00,WeatherDisplay:10.37,2013-07-11 22:17:00,
2013-07-11 23:23:00,61.9,55.6,29.79,ESE,112,0.0,0.0,80,0.00,CLR,SKC,0.00,WeatherDisplay:10.37,2013-07-11 22:23:00,
2013-07-11 23:28:00,61.5,55.3,29.79,ESE,112,0.0,0.0,80,0.00,CLR,SKC,0.00,WeatherDisplay:10.37,2013-07-11 22:28:00,
2013-07-11 23:33:00,61.3,55.1,29.80,ESE,112,0.0,0.0,80,0.00,CLR,SKC,0.00,WeatherDisplay:10.37,2013-07-11 22:33:00,
2013-07-11 23:38:00,61.2,55.3,29.80,East,90,0.0,0.0,81,0.00,CLR,SKC,0.00,WeatherDisplay:10.37,2013-07-11 22:38:00,
2013-07-11 23:43:00,61.0,55.1,29.80,ESE,112,0.0,0.0,81,0.00,CLR,SKC,0.00,WeatherDisplay:10.37,2013-07-11 22:43:00,
2013-07-11 23:48:00,60.8,54.9,29.80,ESE,112,0.0,0.0,81,0.00,CLR,SKC,0.00,WeatherDisplay:10.37,2013-07-11 22:48:00,
2013-07-11 23:53:00,60.6,54.8,29.80,ESE,112,0.0,0.0,81,0.00,CLR,SKC,0.00,WeatherDisplay:10.37,2013-07-11 22:53:00,
2013-07-11 23:58:00,60.6,54.8,29.80,East,90,0.0,0.0,81,0.00,CLR,SKC,0.00,WeatherDisplay:10.37,2013-07-11 22:58:00,